TimeCDT,TemperatureF,Dew PointF,Humidity,Sea Level PressureIn,VisibilityMPH,Wind Direction,Wind SpeedMPH,Gust SpeedMPH,PrecipitationIn,Events,Conditions,WindDirDegrees,DateUTC
12:12 AM,41.0,24.8,53,30.18,10.0,NW,23.0,29.9,N/A,,Overcast,310,2012-10-06 05:12:00
12:32 AM,39.2,26.6,61,30.18,10.0,WNW,16.1,25.3,N/A,,Scattered Clouds,300,2012-10-06 05:32:00
12:53 AM,39.2,26.6,61,30.19,10.0,WNW,12.7,21.9,N/A,,Scattered Clouds,300,2012-10-06 05:53:00
1:12 AM,35.6,26.6,70,30.19,10.0,WNW,15.0,18.4,N/A,,Scattered Clouds,300,2012-10-06 06:12:00
1:33 AM,35.6,26.6,70,30.19,10.0,WNW,11.5,-,N/A,,Clear,300,2012-10-06 06:33:00
1:52 AM,35.6,26.6,70,30.20,10.0,WNW,15.0,-,N/A,,Clear,300,2012-10-06 06:52:00
2:13 AM,33.8,26.6,75,30.19,10.0,WNW,11.5,-,N/A,,Clear,290,2012-10-06 07:13:00
2:33 AM,33.8,26.6,75,30.19,10.0,WNW,12.7,-,N/A,,Clear,300,2012-10-06 07:33:00
2:52 AM,35.6,26.6,70,30.19,10.0,WNW,16.1,20.7,N/A,,Mostly Cloudy,300,2012-10-06 07:52:00
3:13 AM,35.6,28.4,75,30.19,10.0,WNW,15.0,20.7,N/A,,Overcast,300,2012-10-06 08:13:00
3:32 AM,35.6,28.4,75,30.19,10.0,WNW,13.8,18.4,N/A,,Overcast,300,2012-10-06 08:32:00
3:53 AM,35.6,28.4,75,30.19,10.0,WNW,15.0,20.7,N/A,,Overcast,300,2012-10-06 08:53:00
4:13 AM,35.6,28.4,75,30.19,10.0,WNW,13.8,-,N/A,,Overcast,300,2012-10-06 09:13:00
4:32 AM,35.6,28.4,75,30.19,10.0,WNW,13.8,-,N/A,,Overcast,290,2012-10-06 09:32:00
4:53 AM,35.6,28.4,75,30.20,10.0,WNW,13.8,20.7,N/A,,Overcast,300,2012-10-06 09:53:00
5:13 AM,37.4,28.4,70,30.20,10.0,WNW,13.8,-,N/A,,Overcast,300,2012-10-06 10:13:00
5:32 AM,39.2,30.2,70,30.21,10.0,WNW,12.7,-,N/A,,Overcast,300,2012-10-06 10:32:00
5:53 AM,39.2,30.2,70,30.21,10.0,WNW,13.8,-,N/A,,Overcast,300,2012-10-06 10:53:00
6:13 AM,39.2,30.2,70,30.21,10.0,WNW,15.0,19.6,N/A,,Overcast,300,2012-10-06 11:13:00
6:33 AM,39.2,30.2,70,30.21,10.0,WNW,15.0,-,N/A,,Overcast,300,2012-10-06 11:33:00
6:53 AM,39.2,30.2,70,30.22,10.0,NW,12.7,18.4,N/A,,Overcast,310,2012-10-06 11:53:00
7:12 AM,39.2,30.2,70,30.23,10.0,WNW,9.2,-,N/A,,Overcast,300,2012-10-06 12:12:00
7:33 AM,39.2,30.2,70,30.23,10.0,WNW,11.5,-,N/A,,Overcast,300,2012-10-06 12:33:00
7:53 AM,39.2,30.2,70,30.24,10.0,WNW,11.5,-,N/A,,Overcast,300,2012-10-06 12:53:00
8:12 AM,39.2,30.2,70,30.25,10.0,WNW,12.7,-,N/A,,Overcast,300,2012-10-06 13:12:00
8:33 AM,39.2,30.2,70,30.25,10.0,WNW,10.4,-,N/A,,Overcast,300,2012-10-06 13:33:00
9:12 AM,39.2,28.4,65,30.26,10.0,NNW,17.3,-,N/A,,Overcast,340,2012-10-06 14:12:00
9:33 AM,39.2,26.6,61,30.27,10.0,NNW,18.4,-,N/A,,Mostly Cloudy,330,2012-10-06 14:33:00
9:53 AM,39.2,26.6,61,30.27,10.0,NNW,13.8,-,N/A,,Overcast,330,2012-10-06 14:53:00
10:12 AM,41.0,26.6,57,30.28,10.0,NW,13.8,-,N/A,,Overcast,320,2012-10-06 15:12:00
10:33 AM,41.0,26.6,57,30.28,10.0,NW,12.7,20.7,N/A,,Overcast,310,2012-10-06 15:33:00
10:53 AM,41.0,28.4,61,30.28,10.0,NW,12.7,18.4,N/A,,Overcast,310,2012-10-06 15:53:00
11:12 AM,41.0,24.8,53,30.28,10.0,NNW,13.8,17.3,N/A,,Mostly Cloudy,340,2012-10-06 16:12:00
11:33 AM,42.8,24.8,49,30.28,10.0,NNW,16.1,-,N/A,,Overcast,330,2012-10-06 16:33:00
11:53 AM,41.0,24.8,53,30.28,10.0,NNW,13.8,20.7,N/A,,Overcast,340,2012-10-06 16:53:00
12:12 PM,41.0,24.8,53,30.28,10.0,NW,10.4,-,N/A,,Overcast,320,2012-10-06 17:12:00
12:33 PM,41.0,24.8,53,30.28,10.0,NNW,13.8,18.4,N/A,,Overcast,330,2012-10-06 17:33:00
12:53 PM,41.0,24.8,53,30.28,10.0,NNW,16.1,-,N/A,,Overcast,340,2012-10-06 17:53:00
1:12 PM,42.8,26.6,53,30.28,10.0,NNW,10.4,-,N/A,,Overcast,330,2012-10-06 18:12:00
1:33 PM,42.8,24.8,49,30.28,10.0,WNW,12.7,-,N/A,,Overcast,300,2012-10-06 18:33:00
1:52 PM,42.8,23.0,46,30.27,10.0,NNW,13.8,-,N/A,,Overcast,340,2012-10-06 18:52:00
2:13 PM,44.6,23.0,43,30.26,10.0,NNW,12.7,-,N/A,,Overcast,330,2012-10-06 19:13:00
2:33 PM,44.6,21.2,39,30.26,10.0,NNW,15.0,-,N/A,,Overcast,340,2012-10-06 19:33:00
2:52 PM,44.6,19.4,37,30.26,10.0,North,12.7,-,N/A,,Overcast,350,2012-10-06 19:52:00
3:13 PM,44.6,19.4,37,30.26,10.0,NNW,12.7,-,N/A,,Overcast,330,2012-10-06 20:13:00
3:33 PM,44.6,19.4,37,30.25,10.0,NNW,11.5,18.4,N/A,,Overcast,340,2012-10-06 20:33:00
3:52 PM,44.6,19.4,37,30.25,10.0,NW,15.0,-,N/A,,Overcast,310,2012-10-06 20:52:00
4:13 PM,44.6,19.4,37,30.24,10.0,NNW,15.0,18.4,N/A,,Mostly Cloudy,340,2012-10-06 21:13:00
4:33 PM,44.6,19.4,37,30.24,10.0,NNW,13.8,19.6,N/A,,Mostly Cloudy,340,2012-10-06 21:33:00
4:53 PM,42.8,17.6,36,30.25,10.0,NNW,13.8,-,N/A,,Scattered Clouds,340,2012-10-06 21:53:00
5:13 PM,44.6,19.4,37,30.25,10.0,NW,6.9,-,N/A,,Scattered Clouds,310,2012-10-06 22:13:00
5:33 PM,42.8,19.4,39,30.25,10.0,NW,11.5,17.3,N/A,,Scattered Clouds,320,2012-10-06 22:33:00
5:53 PM,41.0,17.6,39,30.25,10.0,NNW,9.2,-,N/A,,Scattered Clouds,330,2012-10-06 22:53:00
6:13 PM,41.0,19.4,42,30.25,10.0,NW,6.9,-,N/A,,Clear,310,2012-10-06 23:13:00
6:33 PM,39.2,17.6,42,30.26,10.0,WNW,5.8,-,N/A,,Clear,300,2012-10-06 23:33:00
6:53 PM,39.2,19.4,45,30.26,10.0,West,3.5,-,N/A,,Scattered Clouds,280,2012-10-06 23:53:00
7:13 PM,39.2,19.4,45,30.26,10.0,West,4.6,-,N/A,,Overcast,260,2012-10-07 00:13:00
7:33 PM,39.2,19.4,45,30.26,10.0,West,4.6,-,N/A,,Overcast,260,2012-10-07 00:33:00
7:53 PM,39.2,19.4,45,30.26,10.0,WSW,5.8,-,N/A,,Overcast,250,2012-10-07 00:53:00
8:13 PM,39.2,21.2,49,30.26,10.0,WSW,4.6,-,N/A,,Overcast,250,2012-10-07 01:13:00
8:33 PM,39.2,21.2,49,30.27,10.0,West,4.6,-,N/A,,Overcast,260,2012-10-07 01:33:00
8:53 PM,39.2,21.2,49,30.27,10.0,West,3.5,-,N/A,,Overcast,270,2012-10-07 01:53:00
9:13 PM,39.2,21.2,49,30.26,10.0,West,5.8,-,N/A,,Overcast,270,2012-10-07 02:13:00
9:33 PM,39.2,21.2,49,30.27,10.0,West,3.5,-,N/A,,Overcast,280,2012-10-07 02:33:00
9:53 PM,39.2,21.2,49,30.27,10.0,West,4.6,-,N/A,,Overcast,270,2012-10-07 02:53:00
10:13 PM,39.2,21.2,49,30.27,10.0,WSW,3.5,-,N/A,,Overcast,250,2012-10-07 03:13:00
10:33 PM,37.4,21.2,52,30.27,10.0,Calm,Calm,-,N/A,,Overcast,0,2012-10-07 03:33:00
10:53 PM,35.6,21.2,56,30.26,10.0,WSW,4.6,-,N/A,,Overcast,250,2012-10-07 03:53:00
11:12 PM,35.6,21.2,56,30.26,10.0,West,3.5,-,N/A,,Overcast,270,2012-10-07 04:12:00
11:33 PM,35.6,21.2,56,30.26,10.0,West,4.6,-,N/A,,Overcast,260,2012-10-07 04:33:00
11:53 PM,33.8,19.4,56,30.25,10.0,West,4.6,-,N/A,,Overcast,260,2012-10-07 04:53:00